Temp
79 79 79 79 78 79 79 76 76 76 76 76 76 76 75 75 75 75 76 76 75 77 77 77 77 79 76 78 76 76 76 76 76 75 75 74 74 74 74 74 73 73 73 73 74 74 74 74 73 73 73 74 75 79 79 80 81 81 81 81 79 79
78 79 79 78 79 79 79 78 79 79 78 77 77 77 77 78 77 78 76 76 77 77 77 78 77 77 78 78 77 76 76 76 76 75 74 74 74 74 74 73 73 72 71 72 74 79 77 73 72 73 73 74 79 78 78 79 79 80 80 80 80 76
78 79 78 78 78 78 79 79 79 79 79 78 78 79 79 78 79 79 79 78 76 76 77 77 77 77 78 76 77 75 75 75 75 75 74 74 74 73 73 73 72 71 70 71 79 80 81 80 76 73 74 76 77 77 77 78 78 78 80 79 79 73
78 78 78 78 78 78 78 79 79 79 79 78 78 78 79 79 78 78 77 76 76 76 76 76 75 75 75 77 77 75 74 74 74 74 74 75 73 73 70 71 71 71 73 78 80 80 81 78 76 76 76 76 76 77 77 77 79 79 80 80 78 73
78 78 77 77 77 78 79 78 79 79 78 78 78 78 78 77 77 76 76 75 76 75 75 76 77 77 77 77 77 77 77 77 78 78 73 77 77 76 75 76 75 75 78 79 80 78 77 76 76 75 74 74 75 77 78 79 80 81 80 78 77 73
77 77 77 77 77 78 77 77 78 78 77 78 78 77 78 75 75 74 75 75 75 74 74 75 76 76 76 76 76 76 76 76 76 77 77 77 77 76 77 78 78 79 79 80 79 79 78 76 75 75 76 75 76 78 79 79 79 78 78 78 77 73
76 76 77 78 78 78 78 78 78 78 77 77 78 77 76 74 72 73 74 74 73 73 73 74 74 75 74 75 75 75 74 75 76 76 77 77 76 76 78 77 79 78 79 80 80 79 77 76 76 76 76 79 78 78 78 79 78 78 78 77 75 72
76 76 76 77 77 77 77 76 77 76 77 77 77 76 75 73 72 73 73 74 74 74 73 73 74 73 74 74 74 75 75 75 75 75 76 75 76 77 77 77 78 79 80 79 78 77 76 76 76 78 79 76 77 76 77 78 77 77 77 77 76 72
76 76 77 77 76 77 77 76 76 77 76 76 76 76 75 73 71 74 74 75 74 72 73 72 72 73 72 73 74 74 74 74 75 75 75 75 76 76 77 77 78 79 78 77 77 76 77 77 77 78 77 77 77 76 75 76 76 77 77 77 76 73
76 76 76 76 76 76 76 75 76 77 77 77 77 76 74 73 74 74 74 75 75 75 74 73 73 73 71 71 72 74 73 74 74 76 76 76 77 78 78 78 79 79 78 78 78 77 76 77 79 77 78 76 75 75 75 76 77 77 77 76 75 73
76 76 77 76 76 76 76 75 77 77 78 77 77 75 73 75 75 74 75 74 75 75 74 75 73 73 73 72 72 73 74 75 76 77 77 77 78 79 78 78 79 78 78 78 77 77 78 77 77 78 77 77 75 75 75 75 75 76 76 75 75 74
75 75 75 76 76 76 76 76 76 77 77 78 76 75 73 74 74 75 75 74 74 75 75 75 74 74 74 73 72 72 74 75 76 77 78 79 78 79 79 79 79 78 77 77 77 77 78 77 76 77 77 75 75 75 75 75 75 74 75 74 75 74
75 74 74 75 76 76 76 76 75 76 77 77 76 75 73 73 74 75 74 74 74 76 76 75 74 74 74 73 73 72 72 74 77 78 78 78 79 77 78 77 76 77 76 77 76 75 78 76 75 75 75 76 76 76 75 75 74 73 73 74 74 74
75 75 74 75 75 76 76 76 76 76 76 76 76 74 73 73 74 75 75 74 75 75 76 77 76 74 74 73 74 74 74 75 76 77 77 77 77 78 78 77 77 77 75 76 76 75 74 74 75 75 74 74 74 73 74 75 74 73 72 72 73 72
74 75 74 75 75 75 76 76 76 75 76 75 75 74 73 73 74 75 76 75 75 75 76 76 77 75 74 74 74 74 75 76 76 77 78 78 78 78 77 77 77 77 75 76 77 75 75 73 73 73 71 71 71 72 73 72 72 73 73 71 72 72
74 74 74 75 75 75 75 75 76 75 75 74 74 73 73 74 75 76 76 76 76 76 76 77 77 77 75 75 75 75 77 77 77 77 78 77 78 77 76 76 76 76 74 75 77 73 73 72 72 71 70 70 70 71 72 72 71 73 73 72 72 70
73 73 74 75 75 75 74 74 74 74 75 74 73 73 74 74 75 76 77 77 76 76 76 76 77 77 75 75 76 77 78 76 77 78 77 76 77 77 75 74 74 75 76 73 74 73 72 71 70 69 69 68 69 70 71 71 71 71 70 70 70 70
73 73 73 73 74 73 74 74 74 74 74 73 72 74 73 73 75 76 76 77 76 76 76 76 77 77 75 77 78 77 78 76 77 77 76 76 76 76 75 74 72 73 75 74 73 71 70 70 69 68 67 66 67 70 70 70 70 70 71 69 70 70
73 73 72 72 73 73 73 72 73 72 73 73 73 73 73 72 75 76 76 77 77 76 76 77 76 77 75 76 77 77 77 76 77 76 75 75 74 74 73 73 72 71 72 74 73 71 70 69 67 66 66 65 67 68 70 70 70 70 70 69 69 69
73 73 72 72 72 71 72 70 69 70 70 70 72 71 72 73 75 76 77 76 77 76 76 76 77 76 76 76 77 76 76 76 77 76 75 74 74 73 71 71 71 70 69 70 71 70 69 69 67 65 64 65 67 67 67 68 68 69 70 69 69 70
73 73 72 71 71 71 69 68 69 70 69 70 71 72 72 73 74 76 77 77 77 76 75 76 77 76 76 76 76 76 76 75 77 76 75 74 73 72 71 71 70 70 69 68 68 70 69 70 67 64 65 65 65 67 66 66 67 68 69 69 71 70
73 73 73 73 72 72 71 71 70 71 71 71 71 71 71 73 73 75 76 76 76 76 76 76 76 77 76 76 75 75 75 75 75 76 75 73 72 70 70 70 70 69 71 69 67 70 69 70 67 66 63 63 64 66 66 66 67 67 68 69 69 69
73 73 73 74 74 73 73 73 72 72 73 73 74 75 75 74 73 75 75 76 76 76 76 77 77 77 76 76 75 75 75 75 75 75 72 71 71 69 70 70 70 70 68 70 69 69 69 72 70 68 67 64 62 61 63 64 66 67 67 68 68 68
73 72 73 74 74 74 74 74 74 74 74 75 73 74 74 73 73 74 74 75 76 76 76 77 78 78 77 76 75 75 75 75 74 74 73 71 70 69 69 70 71 70 70 66 68 68 70 68 71 67 63 65 64 64 61 61 62 65 68 68 67 67
73 72 73 74 74 74 73 73 73 73 74 73 74 72 72 71 72 73 74 73 74 75 76 77 77 77 78 76 75 75 75 74 74 72 70 66 68 70 71 72 71 70 70 69 67 67 67 68 69 72 70 63 61 60 64 65 63 63 66 66 68 70
73 73 74 74 74 74 72 71 70 70 68 69 69 68 67 68 69 70 72 73 74 75 76 77 77 77 78 76 75 75 74 74 73 70 69 66 66 67 70 72 72 71 70 71 70 67 66 67 69 68 69 69 69 68 66 65 65 60 64 67 68 70
73 74 74 74 74 73 72 71 70 70 71 71 70 70 72 73 72 72 73 71 73 73 75 75 76 77 77 76 75 74 74 74 73 72 70 69 68 69 72 73 73 72 72 71 70 68 67 66 67 67 67 68 68 68 70 65 63 64 59 63 65 65
73 74 74 74 73 73 72 72 71 71 72 73 73 71 72 72 73 73 71 71 72 72 74 76 75 76 77 76 75 74 74 74 73 72 71 71 71 72 72 73 72 73 72 71 70 70 68 68 66 66 67 66 66 66 69 68 70 68 67 62 61 67
73 74 74 74 73 73 73 73 72 72 72 74 75 74 73 73 72 71 70 70 70 71 71 74 76 76 76 76 74 74 74 73 73 72 73 73 72 72 71 71 70 70 70 70 71 72 70 68 68 68 65 65 67 68 68 68 68 69 67 65 64 62
73 74 75 74 74 73 74 74 72 72 72 72 73 74 74 72 71 69 69 68 69 70 71 71 72 75 74 75 74 74 73 73 73 73 73 73 72 71 71 71 71 70 70 69 70 71 71 70 69 69 68 68 67 66 66 66 66 67 66 68 66 65
73 74 75 75 74 73 74 74 73 73 73 72 72 72 71 70 70 68 68 67 67 69 71 72 72 72 73 74 73 74 72 73 72 72 72 72 71 72 70 70 70 69 69 68 68 68 67 65 67 69 69 70 69 68 68 67 66 67 67 65 65 66
73 73 74 74 75 74 74 74 74 74 73 73 72 72 71 70 70 68 68 67 68 69 71 72 72 72 72 73 72 72 72 72 71 71 72 73 72 73 71 70 70 69 69 69 69 67 66 64 65 68 68 70 71 71 71 70 71 70 68 68 67 67
72 73 73 74 75 74 73 73 74 74 73 73 73 74 73 72 71 69 68 67 67 68 69 70 71 72 70 71 72 70 70 71 71 71 72 71 67 68 69 69 70 69 69 69 69 67 66 65 66 68 69 69 71 71 71 72 72 70 70 70 69 67
72 73 74 74 75 74 73 74 74 74 74 73 73 73 74 75 72 71 69 68 68 69 70 71 70 70 70 71 71 71 71 71 72 72 70 67 65 67 68 70 70 69 69 69 69 67 67 67 68 69 70 69 69 70 71 70 70 70 68 67 67 66
72 73 73 73 74 73 73 74 74 75 74 74 74 74 74 76 73 71 70 69 70 71 73 72 71 71 71 70 70 71 71 71 70 67 67 66 66 67 68 70 69 66 65 65 65 67 68 68 66 67 66 68 68 69 69 69 69 69 71 70 69 68
73 73 73 73 74 74 74 74 74 74 74 73 74 74 74 74 74 73 71 71 70 71 72 71 71 71 70 71 70 71 71 71 68 66 67 68 67 67 67 68 68 65 64 62 64 65 67 67 66 66 66 67 67 68 67 67 68 69 70 71 70 69
73 73 73 73 74 74 73 73 73 73 73 73 72 73 73 73 73 73 73 73 72 72 73 71 70 70 69 70 71 71 71 69 67 66 67 67 66 67 67 67 66 64 63 62 65 66 66 66 66 65 66 64 67 67 66 65 65 66 66 66 69 69
MSLP
1015.19 1015.51 1015.83 1016.15 1016.39 1016.55 1016.79 1017.11 1017.35 1017.55 1017.75 1017.95 1018.11 1018.31 1018.51 1018.75 1018.91 1019.11 1019.23 1019.39 1019.51 1019.55 1019.63 1019.71 1019.83 1019.75 1019.95 1019.95 1020.15 1020.31 1020.51 1020.71 1020.91 1021.07 1021.23 1021.31 1021.39 1021.43 1021.47 1021.59 1021.71 1021.75 1021.79 1021.83 1021.87 1022.03 1022.19 1022.31 1022.43 1022.47 1022.55 1022.59 1022.47 1022.31 1022.27 1022.27 1022.27 1022.35 1022.43 1022.47 1022.63 1022.87
1015.23 1015.47 1015.75 1016.07 1016.31 1016.43 1016.67 1016.99 1017.15 1017.39 1017.59 1017.79 1018.03 1018.23 1018.43 1018.51 1018.75 1018.91 1019.19 1019.35 1019.47 1019.55 1019.59 1019.67 1019.75 1019.83 1019.91 1020.03 1020.23 1020.39 1020.51 1020.71 1020.95 1021.11 1021.27 1021.39 1021.43 1021.51 1021.55 1021.63 1021.75 1021.87 1021.91 1021.91 1021.91 1021.87 1022.19 1022.47 1022.59 1022.67 1022.71 1022.67 1022.43 1022.47 1022.47 1022.43 1022.47 1022.55 1022.59 1022.63 1022.71 1023.11
1015.15 1015.35 1015.71 1015.99 1016.23 1016.39 1016.59 1016.83 1017.03 1017.23 1017.43 1017.67 1017.87 1018.07 1018.19 1018.43 1018.55 1018.87 1019.07 1019.27 1019.43 1019.59 1019.63 1019.67 1019.79 1019.87 1019.91 1020.11 1020.23 1020.51 1020.59 1020.79 1020.99 1021.15 1021.27 1021.39 1021.47 1021.55 1021.63 1021.71 1021.83 1021.91 1021.99 1021.99 1021.79 1021.79 1021.91 1022.19 1022.55 1022.75 1022.75 1022.63 1022.63 1022.67 1022.63 1022.63 1022.67 1022.71 1022.75 1022.79 1022.91 1023.23
1015.15 1015.31 1015.63 1015.91 1016.15 1016.35 1016.51 1016.75 1016.95 1017.11 1017.27 1017.47 1017.75 1017.91 1018.11 1018.35 1018.59 1018.87 1019.15 1019.31 1019.43 1019.63 1019.75 1019.75 1019.87 1020.03 1020.15 1020.23 1020.35 1020.55 1020.67 1020.87 1021.03 1021.15 1021.27 1021.35 1021.51 1021.59 1021.79 1021.87 1021.91 1021.99 1021.95 1021.79 1021.75 1021.83 1021.95 1022.31 1022.55 1022.59 1022.67 1022.75 1022.79 1022.79 1022.79 1022.83 1022.79 1022.79 1022.79 1022.91 1023.07 1023.39
1015.15 1015.27 1015.55 1015.79 1016.07 1016.23 1016.39 1016.63 1016.83 1017.03 1017.19 1017.39 1017.63 1017.87 1018.03 1018.35 1018.63 1018.95 1019.19 1019.35 1019.47 1019.63 1019.83 1019.79 1019.83 1019.95 1020.07 1020.23 1020.35 1020.47 1020.59 1020.67 1020.79 1020.99 1021.27 1021.27 1021.39 1021.55 1021.63 1021.75 1021.91 1021.91 1021.83 1021.79 1021.87 1022.03 1022.23 1022.47 1022.59 1022.75 1022.87 1022.95 1022.91 1022.87 1022.87 1022.83 1022.83 1022.79 1022.91 1023.07 1023.35 1023.47
1015.31 1015.39 1015.51 1015.71 1015.91 1016.11 1016.39 1016.63 1016.83 1016.95 1017.23 1017.35 1017.59 1017.79 1017.99 1018.43 1018.75 1019.03 1019.19 1019.35 1019.51 1019.75 1019.87 1019.87 1019.91 1019.99 1020.15 1020.27 1020.43 1020.47 1020.59 1020.67 1020.79 1020.91 1021.07 1021.23 1021.31 1021.43 1021.51 1021.63 1021.63 1021.71 1021.75 1021.71 1021.87 1021.99 1022.19 1022.43 1022.67 1022.75 1022.83 1022.95 1022.95 1022.87 1022.91 1022.99 1023.07 1023.15 1023.15 1023.27 1023.59 1023.67
1015.27 1015.47 1015.59 1015.67 1015.83 1016.03 1016.31 1016.47 1016.67 1016.83 1017.11 1017.43 1017.51 1017.79 1018.03 1018.43 1018.83 1019.03 1019.23 1019.31 1019.55 1019.75 1019.87 1019.91 1019.99 1020.11 1020.31 1020.35 1020.47 1020.55 1020.71 1020.71 1020.83 1020.95 1020.99 1021.07 1021.31 1021.35 1021.39 1021.51 1021.51 1021.59 1021.67 1021.71 1021.83 1021.99 1022.23 1022.43 1022.55 1022.71 1022.83 1022.75 1022.87 1023.03 1023.07 1023.11 1023.23 1023.31 1023.35 1023.51 1023.79 1023.91
1015.03 1015.27 1015.55 1015.63 1015.87 1016.03 1016.23 1016.51 1016.67 1016.91 1017.11 1017.27 1017.51 1017.83 1018.11 1018.39 1018.75 1018.99 1019.15 1019.19 1019.35 1019.59 1019.79 1019.95 1019.99 1020.15 1020.27 1020.39 1020.55 1020.55 1020.55 1020.71 1020.87 1020.95 1020.91 1021.03 1021.19 1021.27 1021.39 1021.39 1021.43 1021.55 1021.63 1021.75 1021.99 1022.11 1022.31 1022.51 1022.59 1022.59 1022.71 1023.03 1023.07 1023.15 1023.19 1023.27 1023.39 1023.47 1023.55 1023.67 1023.87 1024.11
1014.87 1015.19 1015.31 1015.55 1015.95 1015.99 1016.15 1016.47 1016.63 1016.87 1017.15 1017.31 1017.55 1017.71 1018.03 1018.31 1018.75 1018.83 1018.95 1018.99 1019.15 1019.47 1019.67 1019.87 1020.03 1020.11 1020.27 1020.43 1020.47 1020.51 1020.55 1020.63 1020.67 1020.75 1020.83 1020.99 1021.03 1021.15 1021.23 1021.31 1021.35 1021.43 1021.59 1021.79 1021.95 1022.15 1022.31 1022.43 1022.51 1022.59 1022.91 1023.07 1023.19 1023.31 1023.43 1023.47 1023.55 1023.63 1023.71 1023.83 1023.95 1024.27
1014.67 1014.99 1015.23 1015.55 1015.79 1016.03 1016.15 1016.47 1016.63 1016.75 1016.87 1017.19 1017.39 1017.63 1017.99 1018.31 1018.47 1018.67 1018.79 1018.79 1018.91 1019.15 1019.43 1019.67 1019.87 1019.95 1020.23 1020.43 1020.47 1020.43 1020.55 1020.51 1020.59 1020.55 1020.63 1020.83 1020.79 1020.83 1021.03 1021.15 1021.19 1021.35 1021.55 1021.71 1021.87 1022.11 1022.27 1022.47 1022.51 1022.79 1022.91 1023.19 1023.35 1023.47 1023.55 1023.63 1023.67 1023.79 1023.87 1023.95 1024.15 1024.43
1014.51 1014.79 1015.07 1015.47 1015.63 1015.87 1016.03 1016.31 1016.43 1016.51 1016.71 1016.99 1017.23 1017.63 1017.99 1018.07 1018.27 1018.43 1018.47 1018.63 1018.79 1018.99 1019.27 1019.43 1019.63 1019.83 1019.99 1020.19 1020.39 1020.43 1020.39 1020.31 1020.39 1020.39 1020.43 1020.59 1020.59 1020.71 1020.87 1021.03 1021.11 1021.31 1021.47 1021.63 1021.87 1022.11 1022.19 1022.39 1022.67 1022.83 1023.03 1023.19 1023.47 1023.51 1023.67 1023.75 1023.83 1023.91 1023.99 1024.11 1024.19 1024.39
1014.43 1014.67 1014.99 1015.27 1015.51 1015.75 1015.99 1016.11 1016.31 1016.43 1016.67 1016.83 1017.15 1017.55 1017.91 1018.03 1018.15 1018.19 1018.31 1018.51 1018.67 1018.91 1019.15 1019.23 1019.39 1019.59 1019.79 1020.07 1020.31 1020.35 1020.31 1020.27 1020.27 1020.23 1020.27 1020.35 1020.51 1020.59 1020.79 1020.95 1021.03 1021.27 1021.47 1021.59 1021.87 1021.99 1022.11 1022.47 1022.75 1022.91 1023.11 1023.39 1023.51 1023.67 1023.79 1023.87 1023.99 1024.11 1024.19 1024.27 1024.31 1024.47
1014.15 1014.59 1014.87 1015.15 1015.35 1015.59 1015.83 1016.03 1016.31 1016.47 1016.55 1016.79 1017.03 1017.35 1017.75 1017.95 1017.99 1018.03 1018.23 1018.35 1018.55 1018.75 1018.91 1019.15 1019.27 1019.43 1019.59 1019.83 1020.07 1020.27 1020.27 1020.19 1020.03 1020.03 1020.11 1020.27 1020.43 1020.63 1020.79 1021.11 1021.27 1021.35 1021.55 1021.67 1021.95 1022.19 1022.27 1022.59 1022.87 1023.07 1023.23 1023.43 1023.55 1023.71 1023.87 1023.99 1024.11 1024.23 1024.35 1024.43 1024.51 1024.63
1013.83 1014.23 1014.63 1014.91 1015.23 1015.51 1015.71 1015.95 1016.15 1016.31 1016.51 1016.79 1016.91 1017.31 1017.63 1017.79 1017.79 1017.87 1018.03 1018.19 1018.39 1018.59 1018.83 1018.87 1019.07 1019.31 1019.43 1019.71 1019.91 1020.03 1020.03 1020.03 1019.95 1019.99 1020.07 1020.19 1020.43 1020.59 1020.87 1021.07 1021.27 1021.39 1021.67 1021.71 1021.99 1022.27 1022.51 1022.75 1022.99 1023.19 1023.43 1023.55 1023.67 1023.87 1023.95 1024.07 1024.19 1024.35 1024.47 1024.59 1024.67 1024.79
1013.75 1014.07 1014.39 1014.71 1015.07 1015.35 1015.55 1015.79 1015.99 1016.27 1016.43 1016.67 1016.87 1017.23 1017.47 1017.63 1017.63 1017.67 1017.79 1017.99 1018.19 1018.43 1018.59 1018.75 1018.83 1019.07 1019.35 1019.55 1019.75 1019.83 1019.83 1019.75 1019.83 1019.87 1019.95 1020.03 1020.23 1020.51 1020.79 1021.03 1021.11 1021.35 1021.63 1021.79 1021.83 1022.27 1022.47 1022.83 1023.07 1023.35 1023.63 1023.79 1023.99 1024.11 1024.15 1024.31 1024.35 1024.43 1024.55 1024.75 1024.87 1024.95
1013.27 1013.83 1014.19 1014.43 1014.75 1015.11 1015.43 1015.63 1015.83 1016.15 1016.35 1016.59 1016.83 1017.11 1017.31 1017.35 1017.35 1017.43 1017.55 1017.75 1017.95 1018.19 1018.43 1018.55 1018.67 1018.79 1019.19 1019.39 1019.51 1019.59 1019.47 1019.59 1019.71 1019.75 1019.79 1020.03 1020.19 1020.55 1020.79 1020.99 1021.07 1021.19 1021.71 1021.91 1021.91 1022.55 1022.63 1022.95 1023.23 1023.59 1023.79 1023.95 1024.15 1024.19 1024.27 1024.39 1024.55 1024.55 1024.67 1024.79 1024.95 1025.11
1013.23 1013.59 1014.03 1014.27 1014.55 1014.91 1015.27 1015.59 1015.83 1016.11 1016.31 1016.47 1016.79 1017.03 1017.03 1017.07 1017.15 1017.23 1017.35 1017.51 1017.71 1018.03 1018.23 1018.39 1018.51 1018.67 1018.99 1019.23 1019.31 1019.31 1019.23 1019.47 1019.51 1019.55 1019.83 1019.99 1020.19 1020.39 1020.75 1021.07 1021.31 1021.27 1021.35 1021.87 1022.15 1022.47 1022.83 1023.07 1023.43 1023.79 1023.99 1024.19 1024.31 1024.35 1024.39 1024.51 1024.63 1024.79 1024.95 1025.07 1025.19 1025.23
1013.23 1013.43 1013.79 1014.19 1014.51 1014.83 1015.15 1015.47 1015.71 1015.99 1016.19 1016.43 1016.67 1016.71 1016.79 1016.95 1016.99 1017.03 1017.15 1017.31 1017.51 1017.83 1018.07 1018.19 1018.35 1018.55 1018.83 1018.95 1019.03 1019.11 1019.19 1019.39 1019.43 1019.55 1019.79 1019.99 1020.23 1020.39 1020.67 1020.95 1021.39 1021.47 1021.47 1021.67 1022.07 1022.47 1022.91 1023.19 1023.55 1023.91 1024.19 1024.43 1024.51 1024.43 1024.55 1024.71 1024.83 1024.95 1024.99 1025.19 1025.23 1025.27
1013.15 1013.35 1013.71 1014.11 1014.43 1014.79 1015.19 1015.47 1015.63 1015.91 1016.15 1016.31 1016.43 1016.51 1016.63 1016.83 1016.79 1016.83 1016.95 1017.07 1017.35 1017.67 1017.95 1018.03 1018.19 1018.43 1018.75 1018.87 1018.95 1019.03 1019.19 1019.35 1019.35 1019.55 1019.83 1020.03 1020.35 1020.55 1020.79 1020.99 1021.27 1021.63 1021.71 1021.67 1021.91 1022.35 1022.71 1023.19 1023.71 1024.03 1024.35 1024.59 1024.59 1024.67 1024.67 1024.83 1024.91 1024.99 1025.03 1025.19 1025.31 1025.39
1012.87 1013.15 1013.47 1013.95 1014.31 1014.75 1015.11 1015.47 1015.79 1015.95 1016.15 1016.23 1016.31 1016.47 1016.59 1016.59 1016.63 1016.75 1016.83 1016.99 1017.23 1017.55 1017.75 1017.95 1018.07 1018.31 1018.59 1018.71 1018.83 1018.99 1019.15 1019.27 1019.35 1019.51 1019.83 1020.11 1020.35 1020.59 1020.91 1021.19 1021.39 1021.55 1021.91 1022.11 1022.19 1022.51 1022.79 1023.19 1023.75 1024.19 1024.59 1024.67 1024.71 1024.83 1024.91 1024.95 1024.99 1025.03 1025.11 1025.23 1025.31 1025.35
1012.51 1012.91 1013.23 1013.67 1014.07 1014.43 1014.91 1015.39 1015.59 1015.67 1015.87 1016.07 1016.23 1016.31 1016.51 1016.47 1016.63 1016.63 1016.71 1016.91 1017.15 1017.39 1017.63 1017.79 1017.95 1018.23 1018.47 1018.59 1018.71 1018.83 1019.03 1019.23 1019.27 1019.39 1019.67 1019.91 1020.11 1020.43 1020.71 1020.91 1021.27 1021.55 1021.83 1022.27 1022.67 1022.67 1022.91 1022.95 1023.51 1024.39 1024.59 1024.75 1024.99 1024.95 1025.07 1025.07 1025.07 1025.07 1025.11 1025.15 1025.19 1025.31
1012.23 1012.55 1012.75 1012.99 1013.51 1014.03 1014.39 1014.75 1015.11 1015.43 1015.63 1015.83 1016.11 1016.27 1016.39 1016.43 1016.55 1016.55 1016.67 1016.83 1017.07 1017.27 1017.51 1017.67 1017.83 1017.99 1018.27 1018.43 1018.67 1018.79 1018.95 1019.15 1019.23 1019.35 1019.55 1019.79 1020.11 1020.43 1020.71 1020.99 1021.23 1021.75 1021.87 1022.03 1022.51 1022.55 1022.75 1022.79 1023.51 1023.63 1024.39 1024.87 1024.99 1025.03 1025.07 1025.11 1025.11 1025.11 1025.11 1025.11 1025.23 1025.27
1011.79 1012.15 1012.35 1012.63 1013.03 1013.63 1014.03 1014.35 1014.71 1014.95 1015.23 1015.55 1015.59 1015.71 1015.87 1016.11 1016.35 1016.51 1016.63 1016.75 1016.95 1017.15 1017.43 1017.55 1017.67 1017.91 1018.19 1018.31 1018.43 1018.59 1018.83 1018.95 1019.15 1019.31 1019.79 1020.07 1020.27 1020.63 1020.71 1020.91 1021.03 1021.27 1021.99 1022.19 1022.39 1022.51 1022.55 1022.23 1022.75 1023.31 1023.63 1024.27 1024.91 1025.19 1025.15 1025.19 1025.15 1025.15 1025.15 1025.15 1025.19 1025.27
1011.55 1011.87 1012.07 1012.31 1012.71 1013.03 1013.51 1013.95 1014.35 1014.55 1014.83 1015.03 1015.51 1015.63 1015.83 1016.07 1016.31 1016.47 1016.79 1016.79 1016.87 1017.11 1017.31 1017.47 1017.51 1017.71 1017.95 1018.07 1018.23 1018.47 1018.63 1018.87 1019.11 1019.27 1019.55 1019.95 1020.35 1020.63 1020.79 1020.87 1020.91 1021.11 1021.27 1022.27 1022.47 1022.75 1022.51 1022.55 1022.35 1022.99 1024.19 1023.79 1024.27 1024.35 1024.71 1024.91 1025.03 1025.03 1025.03 1025.11 1025.19 1025.23
1011.11 1011.55 1011.79 1012.03 1012.51 1012.87 1013.43 1013.95 1014.27 1014.51 1014.67 1015.07 1015.31 1015.71 1015.99 1016.31 1016.31 1016.43 1016.63 1016.87 1016.99 1017.03 1017.23 1017.35 1017.43 1017.55 1017.71 1017.95 1018.11 1018.27 1018.51 1018.75 1019.03 1019.27 1019.55 1020.43 1020.79 1020.59 1020.51 1020.47 1020.63 1020.99 1021.11 1021.39 1022.27 1022.47 1022.71 1022.63 1022.51 1022.15 1022.51 1024.03 1024.63 1024.75 1023.83 1023.87 1024.59 1024.95 1024.99 1025.07 1025.03 1024.99
1010.79 1011.19 1011.43 1011.75 1012.15 1012.63 1013.11 1013.63 1014.15 1014.55 1014.91 1015.11 1015.51 1015.67 1015.99 1016.19 1016.39 1016.51 1016.59 1016.63 1016.83 1016.95 1017.07 1017.23 1017.31 1017.39 1017.51 1017.71 1018.03 1018.15 1018.39 1018.63 1018.99 1019.31 1019.75 1020.03 1020.31 1020.63 1020.63 1020.51 1020.51 1020.59 1020.91 1020.95 1021.23 1022.19 1022.59 1022.67 1022.51 1022.59 1022.51 1022.51 1022.51 1022.75 1023.23 1023.91 1024.07 1024.67 1024.91 1024.75 1024.75 1024.75
1010.23 1010.75 1011.07 1011.35 1011.79 1012.27 1012.83 1013.19 1013.63 1013.95 1014.23 1014.51 1014.95 1015.23 1015.31 1015.51 1015.91 1016.11 1016.27 1016.63 1016.75 1016.91 1016.95 1017.15 1017.23 1017.23 1017.39 1017.59 1017.79 1018.03 1018.27 1018.47 1018.79 1019.15 1019.43 1019.83 1020.27 1020.23 1020.11 1020.15 1020.27 1020.47 1020.51 1020.75 1021.03 1021.67 1022.03 1022.39 1022.71 1022.71 1022.67 1022.67 1022.67 1022.71 1022.59 1023.51 1023.95 1023.99 1024.87 1024.83 1024.91 1024.87
1009.87 1010.23 1010.51 1010.87 1011.43 1011.75 1012.31 1012.67 1013.23 1013.59 1013.83 1014.11 1014.35 1014.87 1015.03 1015.31 1015.51 1015.79 1016.23 1016.51 1016.67 1016.87 1016.95 1016.95 1017.11 1017.19 1017.27 1017.47 1017.71 1017.91 1018.11 1018.35 1018.63 1018.95 1019.23 1019.39 1019.59 1019.71 1019.83 1019.99 1020.07 1020.15 1020.35 1020.55 1020.75 1021.03 1021.59 1021.87 1022.23 1022.35 1022.55 1022.79 1022.83 1022.91 1022.75 1022.87 1022.79 1022.95 1023.11 1024.11 1024.67 1024.59
1009.63 1009.95 1010.23 1010.39 1010.91 1011.43 1011.75 1012.07 1012.67 1013.19 1013.59 1013.63 1013.87 1014.31 1014.67 1014.99 1015.43 1015.75 1016.19 1016.35 1016.63 1016.83 1016.95 1016.95 1016.91 1017.07 1017.23 1017.35 1017.59 1017.79 1017.95 1018.19 1018.39 1018.67 1018.83 1018.99 1019.19 1019.39 1019.67 1019.91 1020.19 1020.31 1020.43 1020.59 1020.63 1020.63 1020.99 1021.47 1021.71 1021.87 1022.55 1022.79 1022.67 1022.67 1022.83 1022.87 1022.95 1022.95 1023.11 1023.43 1023.67 1024.23
1009.27 1009.59 1009.79 1010.07 1010.47 1011.03 1011.39 1011.71 1012.31 1012.67 1013.11 1013.51 1013.67 1013.99 1014.31 1014.91 1015.27 1015.67 1016.07 1016.35 1016.55 1016.75 1016.91 1017.03 1016.99 1017.03 1017.23 1017.27 1017.47 1017.59 1017.79 1017.95 1018.11 1018.31 1018.47 1018.67 1018.99 1019.35 1019.59 1019.71 1019.83 1020.07 1020.27 1020.51 1020.59 1020.67 1020.83 1021.03 1021.31 1021.43 1021.83 1022.11 1022.51 1022.79 1022.87 1022.99 1023.07 1023.11 1023.23 1023.07 1023.19 1023.55
1008.87 1009.11 1009.39 1009.59 1010.07 1010.63 1010.99 1011.35 1011.79 1012.19 1012.67 1013.15 1013.47 1013.79 1014.35 1014.79 1015.11 1015.59 1015.95 1016.27 1016.47 1016.59 1016.63 1016.75 1016.87 1017.07 1017.19 1017.23 1017.39 1017.47 1017.63 1017.75 1017.91 1018.11 1018.31 1018.55 1018.87 1019.03 1019.27 1019.47 1019.67 1019.91 1020.11 1020.35 1020.55 1020.71 1020.95 1021.23 1021.39 1021.39 1021.59 1021.83 1021.95 1022.03 1022.15 1022.47 1022.63 1022.83 1022.87 1023.19 1023.27 1023.15
1008.99 1009.03 1009.11 1009.31 1009.67 1010.23 1010.63 1010.95 1011.27 1011.75 1012.27 1012.59 1013.07 1013.55 1014.03 1014.51 1014.83 1015.39 1015.63 1016.03 1016.23 1016.39 1016.51 1016.55 1016.75 1016.99 1017.19 1017.23 1017.31 1017.43 1017.55 1017.71 1017.99 1018.11 1018.23 1018.27 1018.47 1018.75 1019.07 1019.35 1019.67 1019.99 1020.15 1020.35 1020.47 1020.71 1020.91 1021.27 1021.43 1021.35 1021.43 1021.47 1021.55 1021.51 1021.59 1021.75 1021.79 1022.19 1022.55 1022.59 1022.75 1022.79
1008.55 1008.59 1008.71 1008.87 1009.27 1009.79 1010.31 1010.63 1010.91 1011.35 1011.83 1012.23 1012.63 1013.07 1013.55 1014.03 1014.39 1014.95 1015.31 1015.75 1016.07 1016.31 1016.35 1016.55 1016.63 1016.83 1017.07 1017.15 1017.19 1017.43 1017.63 1017.79 1017.91 1017.99 1017.99 1018.23 1019.11 1019.51 1019.31 1019.39 1019.59 1019.91 1020.11 1020.27 1020.43 1020.71 1020.91 1021.07 1021.19 1021.15 1021.19 1021.27 1021.35 1021.43 1021.47 1021.43 1021.59 1021.95 1022.11 1022.27 1022.51 1022.79
1007.99 1008.03 1008.31 1008.67 1008.91 1009.51 1009.87 1010.19 1010.51 1010.87 1011.35 1011.87 1012.35 1012.79 1013.03 1013.47 1013.99 1014.39 1014.87 1015.39 1015.67 1015.75 1015.91 1015.99 1016.31 1016.59 1016.71 1016.95 1017.03 1017.03 1017.31 1017.51 1017.67 1017.83 1017.99 1018.63 1019.31 1019.23 1019.31 1019.55 1019.55 1019.79 1020.03 1020.19 1020.35 1020.63 1020.75 1020.83 1020.95 1020.95 1020.95 1021.15 1021.35 1021.39 1021.39 1021.47 1021.67 1021.87 1022.19 1022.51 1022.63 1022.63
1007.71 1007.95 1008.11 1008.27 1008.59 1009.11 1009.51 1009.83 1010.15 1010.47 1010.95 1011.39 1011.95 1012.39 1012.71 1012.95 1013.55 1014.07 1014.51 1014.95 1015.23 1015.27 1015.39 1015.59 1015.91 1016.19 1016.51 1016.75 1016.83 1016.99 1017.23 1017.51 1017.75 1017.83 1018.19 1018.67 1018.95 1018.99 1019.15 1019.27 1019.51 1019.83 1020.15 1020.35 1020.51 1020.59 1020.59 1020.71 1020.91 1020.99 1021.07 1021.07 1021.19 1021.35 1021.39 1021.55 1021.67 1021.75 1021.71 1021.95 1022.07 1022.27
1006.83 1007.03 1007.35 1007.79 1008.07 1008.43 1008.99 1009.47 1009.91 1010.27 1010.63 1011.15 1011.59 1011.99 1012.39 1012.71 1013.07 1013.55 1014.03 1014.43 1014.75 1014.87 1015.07 1015.23 1015.63 1015.99 1016.39 1016.51 1016.71 1016.91 1017.19 1017.51 1017.79 1017.99 1018.31 1018.47 1018.83 1018.99 1019.07 1019.27 1019.43 1019.75 1019.99 1020.27 1020.39 1020.55 1020.55 1020.67 1020.71 1020.83 1020.99 1021.07 1021.23 1021.27 1021.43 1021.59 1021.63 1021.67 1021.67 1021.67 1021.75 1021.99
1006.55 1006.87 1007.11 1007.43 1007.67 1008.15 1008.75 1009.23 1009.63 1009.95 1010.35 1010.87 1011.39 1011.83 1012.15 1012.55 1012.87 1013.31 1013.67 1013.99 1014.39 1014.59 1014.79 1015.07 1015.51 1015.87 1016.19 1016.39 1016.55 1016.79 1017.11 1017.47 1017.83 1018.07 1018.27 1018.55 1018.79 1018.91 1019.03 1019.11 1019.31 1019.67 1019.91 1020.15 1020.11 1020.27 1020.47 1020.55 1020.59 1020.79 1020.91 1021.15 1021.15 1021.23 1021.51 1021.67 1021.75 1021.83 1021.87 1021.95 1021.87 1021.83
Wind_Speed
14 15 14 13 11 12 13 16 15 16 15 15 14 14 13 13 12 12 11 11 10 8 8 8 9 9 12 10 10 11 13 12 11 10 9 10 10 10 10 11 12 10 8 9 12 14 13 12 13 12 12 11 8 5 5 6 6 6 5 6 6 7
13 15 14 11 10 10 11 14 13 13 12 13 14 14 12 10 11 9 10 9 7 7 7 8 8 10 8 9 9 10 12 12 11 9 8 9 10 9 9 10 11 10 8 8 11 9 10 13 13 12 11 9 5 6 6 6 6 5 6 6 6 8
14 15 15 13 10 10 12 11 12 12 10 12 12 11 10 10 9 8 8 7 6 6 8 8 7 8 8 9 9 8 9 10 9 9 8 8 9 9 9 10 11 9 8 7 6 7 7 7 8 11 9 6 5 5 6 6 6 5 6 6 7 12
14 15 14 12 10 10 10 10 10 10 9 10 10 10 10 8 7 8 7 7 6 6 7 7 9 11 9 8 8 10 10 9 9 8 7 7 7 8 10 10 10 8 5 5 5 6 6 6 6 5 5 5 6 6 6 6 5 5 5 7 8 13
14 14 14 12 12 11 11 10 10 10 9 9 9 9 8 8 7 8 7 6 7 7 6 7 7 7 6 7 7 7 8 8 7 7 7 6 3 4 4 4 4 3 3 5 6 6 7 7 6 6 6 6 6 6 6 6 6 5 6 6 7 11
12 12 13 12 12 11 11 10 11 10 10 9 9 8 9 7 7 7 7 6 7 7 7 7 7 7 7 7 8 7 6 6 7 7 6 4 3 2 3 3 3 4 4 4 5 6 7 7 7 6 6 6 6 6 6 5 5 5 6 6 8 10
13 10 13 12 11 11 11 10 10 10 10 9 8 8 8 7 7 7 7 7 7 6 6 7 8 7 7 7 7 7 6 6 7 6 5 3 3 2 2 3 3 4 4 5 6 7 7 7 6 7 7 7 6 6 5 6 5 5 6 7 9 12
13 12 12 13 12 11 10 9 10 9 9 9 9 8 7 7 7 7 7 6 6 6 6 7 8 7 7 7 7 7 6 6 6 4 3 2 3 2 3 3 3 4 5 6 6 7 7 7 7 7 7 7 6 6 5 6 6 6 6 6 7 10
14 14 12 12 11 11 11 10 10 10 10 10 9 8 7 7 7 7 7 7 6 6 6 6 7 7 6 5 5 5 5 4 4 3 3 3 3 4 4 4 4 5 5 6 6 7 7 7 7 7 7 7 7 6 6 6 6 6 6 6 7 9
15 13 13 12 11 11 10 11 11 11 10 11 10 8 8 8 7 6 6 6 6 5 5 5 7 6 6 5 4 5 5 4 4 4 4 4 4 4 4 4 4 5 7 7 7 7 7 7 7 7 6 7 7 6 6 6 6 6 6 6 7 8
16 14 13 12 12 12 12 12 12 11 9 10 8 9 8 8 8 6 5 6 6 5 5 6 7 7 6 6 6 4 4 4 4 5 5 5 5 5 4 4 5 6 6 6 7 7 7 7 7 7 7 7 6 6 6 5 5 6 6 6 6 7
14 14 12 14 12 12 12 12 12 10 10 10 10 9 8 8 6 5 5 6 6 6 6 6 6 6 6 6 6 5 4 5 6 6 6 6 6 5 5 5 6 6 6 7 7 7 7 7 7 7 7 7 6 6 6 5 5 5 6 6 6 6
16 15 15 15 13 12 11 11 11 10 9 10 9 9 8 8 6 5 5 6 6 8 7 6 6 6 6 6 6 6 6 6 6 6 6 6 6 6 6 5 6 6 7 8 8 8 8 6 7 7 7 7 6 6 5 5 5 5 6 5 5 5
15 16 16 14 12 12 12 11 10 10 8 9 9 8 8 8 7 5 6 6 6 6 6 6 6 6 5 5 6 6 7 6 5 6 6 6 6 6 6 7 7 7 7 7 8 8 7 7 6 6 6 6 5 5 5 5 5 5 5 5 5 5
15 16 16 15 14 13 12 11 11 9 9 9 10 7 8 8 7 6 6 6 7 7 7 6 6 6 6 6 6 6 7 6 6 6 6 6 6 7 6 7 7 7 7 7 8 8 7 7 7 7 6 5 5 5 4 5 5 5 5 5 4 4
18 18 17 16 14 13 12 11 9 10 9 10 9 7 9 9 7 6 6 6 7 7 7 6 6 6 6 6 6 6 6 6 7 6 6 7 6 7 6 6 6 7 8 7 8 8 6 7 7 7 6 5 5 5 5 4 5 5 4 4 4 4
17 18 17 16 15 14 11 11 11 10 11 11 8 9 9 9 7 6 7 6 7 7 7 6 6 7 6 6 5 6 5 6 6 6 7 7 6 6 7 6 6 5 7 8 9 9 7 7 7 6 6 5 4 4 4 4 4 4 4 4 4 4
15 16 14 14 14 12 12 11 11 10 11 11 10 10 8 9 7 7 7 7 8 7 6 6 7 7 7 6 5 5 5 6 6 7 7 6 6 6 6 7 7 5 5 8 8 9 8 7 7 6 6 5 4 4 4 4 4 4 4 5 4 4
16 16 15 13 13 12 12 11 10 11 11 11 10 10 9 9 7 7 7 7 8 7 8 8 7 8 7 7 6 6 5 7 7 6 6 6 7 7 6 6 8 7 4 5 7 8 8 8 7 6 6 5 4 4 4 3 4 4 4 5 5 5
16 15 14 13 13 12 12 12 11 12 11 11 8 9 9 9 7 7 7 8 8 8 8 8 8 8 8 7 6 6 6 6 7 6 7 8 7 7 9 9 8 10 8 6 6 7 9 9 8 7 6 5 4 4 4 4 4 4 4 5 5 5
16 16 14 14 13 13 12 10 11 12 11 10 10 10 9 9 8 6 8 8 8 8 8 9 9 8 8 7 6 6 6 6 6 7 7 7 8 9 8 8 8 7 10 9 7 7 8 9 10 7 5 5 4 3 3 3 4 4 4 4 4 4
15 16 16 16 14 12 10 11 10 10 9 10 10 10 10 9 9 6 8 7 7 8 9 9 9 9 9 8 6 6 6 7 6 6 5 6 8 8 9 8 8 7 5 9 8 10 9 10 7 7 8 6 4 3 2 3 4 4 4 4 4 4
16 16 16 16 14 14 12 11 12 10 11 9 9 9 9 9 9 8 7 7 7 8 9 9 9 9 9 8 7 6 7 6 7 6 6 7 8 9 9 10 10 9 8 4 6 7 10 6 6 6 5 6 5 5 4 3 3 4 5 4 4 4
16 15 14 16 15 14 14 12 12 9 11 10 9 8 8 9 9 9 8 7 7 8 9 9 10 10 9 6 7 7 6 7 6 6 6 8 8 8 8 9 8 8 10 8 7 8 7 2 6 10 6 4 4 4 4 7 7 6 6 6 6 5
16 15 14 15 16 14 13 13 11 9 9 9 8 9 9 9 10 10 9 9 9 9 10 10 10 10 9 7 7 7 7 7 6 6 5 5 3 7 9 9 10 9 10 10 9 7 7 3 6 2 4 5 3 3 4 3 7 4 6 6 7 7
14 15 15 17 17 15 13 13 13 12 13 12 11 12 12 12 10 10 10 9 9 9 10 10 10 10 10 7 7 8 8 8 7 6 6 10 9 6 8 9 10 9 9 8 10 9 8 5 6 2 2 2 2 2 3 5 6 3 5 5 5 7
15 15 15 17 19 16 15 13 15 14 13 13 13 10 10 10 10 9 8 9 9 9 10 10 10 9 10 8 8 8 8 8 8 8 8 8 8 9 8 9 8 8 8 7 8 9 10 8 4 4 3 0 1 1 4 6 4 4 5 5 5 6
16 16 17 16 18 16 15 15 15 15 13 13 13 12 11 10 9 9 9 10 8 8 9 10 10 10 10 8 7 7 8 8 8 9 9 9 9 8 7 7 8 8 7 7 9 9 9 8 10 8 6 4 2 2 4 1 4 5 2 5 6 5
18 18 17 19 19 19 16 16 15 14 13 13 13 11 11 10 10 9 10 9 9 8 9 9 10 11 9 8 8 8 8 8 8 9 9 9 8 9 10 9 8 7 7 7 7 6 7 8 8 6 7 5 3 4 4 1 2 2 3 4 5 8
19 19 18 20 19 20 19 15 16 16 15 13 11 11 11 11 10 10 11 10 9 9 8 8 9 9 7 8 8 8 8 9 9 9 8 8 8 8 8 8 9 8 8 8 6 5 6 6 7 5 8 6 7 4 3 3 3 4 2 4 4 8
18 17 19 21 20 20 18 18 17 17 17 16 14 13 11 11 11 11 11 10 9 9 9 9 8 9 8 8 8 8 8 8 7 6 6 8 8 9 8 7 7 8 8 8 6 6 3 3 5 5 7 7 8 8 7 7 6 6 6 5 4 5
19 20 20 19 21 20 19 18 18 18 18 17 16 14 14 14 13 13 12 11 9 9 9 9 9 9 9 8 7 7 7 7 6 6 8 7 7 6 6 5 5 5 5 6 5 6 5 5 7 6 7 7 7 7 6 6 5 6 6 6 6 5
22 22 19 20 22 21 19 19 19 18 18 16 17 16 15 14 13 12 11 11 11 10 9 10 10 11 10 9 8 7 7 7 6 7 7 5 5 2 4 5 5 6 6 7 6 6 6 7 8 8 8 6 6 6 7 5 3 4 5 4 5 4
21 20 19 21 22 21 21 19 19 19 17 15 16 16 15 15 13 12 11 12 11 11 11 12 9 8 9 9 8 8 8 7 6 6 5 7 8 6 5 5 5 5 6 5 4 7 7 7 7 7 5 6 7 6 6 3 4 4 5 5 6 6
20 22 20 22 21 22 20 20 18 18 17 14 16 14 12 14 13 13 12 12 12 11 12 10 9 8 9 9 9 8 8 7 6 5 5 7 6 6 5 4 4 3 3 2 4 5 6 7 6 7 6 6 6 5 4 4 4 6 6 6 6 6
23 24 24 23 22 22 21 18 19 19 18 13 12 11 10 10 13 13 13 13 12 12 10 7 7 8 9 9 9 8 7 7 6 5 5 7 7 5 5 5 4 4 5 3 4 6 5 6 6 6 6 5 4 5 3 3 4 4 5 5 5 5
23 18 21 23 23 21 20 19 19 18 16 15 13 14 13 14 14 13 13 12 12 12 10 7 8 8 9 8 8 8 8 8 8 6 5 6 5 4 5 5 4 4 4 4 4 5 4 5 5 5 4 6 5 4 3 3 3 2 3 3 4 5
Wind_Direction
177 177 177 174 175 176 173 172 170 170 171 168 163 164 163 167 161 159 159 157 154 162 158 154 161 160 160 163 155 158 157 151 149 143 128 115 111 110 107 106 107 103 95 92 107 116 113 111 103 105 108 105 111 103 100 99 96 91 89 96 92 90
176 178 176 173 176 177 172 179 175 172 176 170 168 168 168 175 167 161 163 160 164 163 163 158 156 158 164 159 159 165 162 155 149 143 133 121 113 112 109 108 109 103 97 106 128 128 120 103 103 112 110 111 108 104 105 101 97 96 97 95 94 96
179 176 175 175 176 177 175 178 178 177 176 173 169 175 172 179 170 166 171 169 166 168 166 158 156 160 162 160 157 154 156 150 151 148 142 127 119 115 111 109 104 102 104 124 135 128 132 133 121 116 114 107 103 105 104 104 102 99 90 89 93 94
181 177 177 178 177 178 180 176 178 180 177 175 173 176 172 171 166 166 168 170 172 166 167 161 156 150 153 163 162 165 157 153 158 156 142 139 119 113 106 106 106 115 129 137 126 131 130 132 134 132 117 113 112 114 113 110 106 99 94 84 86 94
187 180 180 179 180 181 181 178 180 179 180 176 175 174 171 165 167 164 169 175 174 169 168 164 160 157 162 159 165 169 171 175 172 166 138 163 161 134 153 133 134 145 127 138 131 129 138 139 135 128 120 119 121 118 114 111 107 105 98 93 85 99
189 186 183 183 183 181 180 183 180 181 178 179 176 172 173 164 169 173 181 176 172 170 169 168 166 163 158 161 163 164 165 169 168 171 164 171 159 157 150 139 140 134 135 138 132 136 141 139 135 132 127 126 128 125 116 110 102 97 94 96 96 89
191 186 188 184 184 187 186 186 181 182 180 180 179 177 176 169 172 176 176 173 169 170 169 170 166 165 163 166 165 166 162 170 166 169 171 170 151 155 138 136 142 130 133 137 136 135 139 139 137 134 134 135 127 122 117 108 105 101 98 96 90 85
192 189 189 187 187 188 184 185 181 179 185 180 181 180 173 174 168 174 176 171 165 166 167 167 167 166 169 173 173 169 164 163 167 175 158 158 154 147 137 129 141 136 140 137 133 137 141 140 139 140 135 129 126 114 107 102 99 97 99 98 100 90
192 192 189 188 190 191 185 186 182 186 185 179 188 185 176 166 171 177 180 172 164 159 162 162 167 166 168 179 170 171 168 172 172 166 161 153 162 152 142 150 151 149 144 143 140 143 147 143 142 138 135 126 116 112 108 108 106 104 99 100 95 95
194 191 189 190 192 191 187 184 187 190 188 185 191 182 173 184 181 179 176 178 167 160 159 161 160 163 167 168 169 165 174 171 171 161 163 154 164 156 143 145 149 144 144 147 142 147 149 147 143 134 130 123 118 115 112 113 111 107 105 99 99 101
194 191 191 194 195 194 188 188 189 189 187 190 176 175 182 184 185 184 173 170 166 162 156 160 167 166 170 165 167 174 177 167 163 160 161 152 156 152 144 148 149 145 146 141 143 150 156 148 137 129 126 124 119 117 112 109 108 107 105 104 108 107
196 192 192 196 196 195 192 189 188 192 189 191 178 184 185 186 186 186 172 167 165 168 175 174 173 170 175 168 170 179 174 167 166 161 164 160 157 151 152 141 137 132 131 141 146 152 150 147 136 129 127 120 122 119 118 114 111 106 103 105 107 110
193 195 195 196 196 196 193 189 187 193 190 187 183 186 187 189 189 182 177 177 168 177 180 180 184 183 178 177 175 176 179 180 173 165 166 166 155 148 149 141 136 132 137 143 144 146 147 134 129 127 128 128 125 121 115 117 112 109 110 109 110 114
193 193 195 195 196 195 194 192 190 194 191 187 189 188 190 191 190 183 180 178 175 174 181 187 181 181 177 181 184 188 184 182 176 167 164 165 164 163 155 147 147 144 138 147 150 148 144 136 128 129 127 123 117 114 124 117 112 109 112 112 112 118
191 194 192 194 193 196 194 194 190 192 194 195 193 192 192 192 192 188 180 178 175 175 186 184 184 178 181 189 192 194 192 180 167 170 171 171 168 161 153 152 154 149 139 140 147 150 141 134 138 133 124 120 119 126 122 115 114 117 112 112 122 120
185 191 195 194 192 194 194 195 193 192 195 192 191 193 194 193 191 184 180 176 174 176 184 188 183 188 182 194 202 201 192 175 171 175 172 163 162 154 150 149 152 148 141 143 155 148 134 133 133 126 122 122 126 132 124 123 120 118 115 132 127 131
186 187 192 195 192 191 191 193 193 194 199 193 192 195 195 194 190 181 182 177 171 176 186 187 185 190 196 195 204 210 189 173 176 176 161 158 161 150 148 142 142 152 148 144 146 137 133 132 126 123 119 116 121 128 126 121 121 112 126 129 134 136
187 187 189 192 192 189 191 195 197 198 199 197 196 197 191 192 190 183 180 176 166 172 189 190 189 192 198 200 205 206 190 176 178 171 157 158 148 146 145 145 139 139 146 145 145 145 139 131 124 124 114 111 118 122 116 122 123 136 141 137 136 136
189 187 187 188 185 185 191 196 198 199 200 198 197 198 189 192 189 184 183 170 166 173 192 196 191 196 200 199 202 200 186 176 178 164 152 149 141 144 142 144 143 136 123 137 144 142 137 130 122 115 111 114 116 113 127 134 143 149 140 135 132 132
192 188 185 185 183 185 191 195 197 199 200 197 193 192 194 193 189 187 180 170 169 180 188 192 195 197 202 201 193 186 185 176 178 161 154 150 150 154 151 141 140 140 132 111 113 128 130 128 114 105 107 105 104 125 141 150 152 150 147 147 146 152
189 188 183 184 185 188 191 193 199 200 199 191 193 191 189 190 194 189 180 175 172 182 186 190 195 196 203 197 192 179 178 176 175 169 162 157 152 147 147 143 136 138 138 132 132 142 141 136 128 112 108 116 119 118 131 159 163 161 161 161 159 166
187 189 188 185 186 189 193 199 197 197 193 190 192 191 190 189 192 187 181 176 172 184 186 189 191 199 202 197 186 174 177 176 175 170 150 136 136 138 143 141 139 129 141 145 148 161 155 147 154 155 152 150 143 145 139 175 183 175 178 177 179 179
190 189 187 185 185 191 193 196 198 193 194 194 200 199 193 188 185 187 179 178 176 188 190 195 192 197 200 196 182 174 178 173 178 154 142 145 144 148 155 153 156 147 141 133 141 162 170 200 158 136 129 135 164 177 173 206 205 204 198 199 191 195
189 187 184 185 187 188 189 190 198 191 195 197 194 189 185 178 182 184 184 188 188 196 196 199 198 198 202 187 181 179 169 174 170 164 156 154 157 156 158 160 161 154 144 143 162 171 194 229 157 142 162 212 149 210 197 205 194 196 203 205 208 206
184 184 185 184 185 183 183 187 188 188 192 189 181 183 182 181 183 184 185 188 194 194 198 200 199 200 201 182 180 179 171 170 162 152 135 81 139 171 171 169 164 159 165 154 162 172 190 205 191 206 146 136 143 207 240 102 167 178 188 208 213 212
183 185 186 184 184 184 182 181 185 187 189 192 190 187 188 183 181 185 188 186 189 194 197 200 197 200 198 178 178 177 171 166 158 148 134 160 178 176 182 174 176 171 174 168 158 167 178 194 213 209 282 344 341 328 140 142 177 175 175 213 210 206
182 188 186 183 184 187 185 183 189 194 194 197 198 195 187 184 183 183 178 179 184 192 197 197 198 197 194 181 176 174 171 169 159 158 159 160 178 189 183 181 176 182 178 170 156 170 181 178 185 230 210 239 19 7 140 146 196 125 181 181 210 201
184 186 187 182 185 188 188 188 190 196 198 200 200 186 183 183 181 176 175 178 178 188 196 200 196 197 193 178 176 174 173 169 164 157 172 183 186 184 181 184 183 184 173 174 179 178 178 173 183 195 192 190 157 122 156 19 176 211 227 176 182 195
185 187 186 183 184 190 192 188 190 195 198 202 197 186 179 179 177 175 176 174 176 182 192 198 199 196 189 179 175 177 174 173 171 169 179 183 183 178 180 175 180 183 183 184 191 191 173 183 195 184 163 195 182 168 166 143 166 189 228 208 188 181
184 189 188 184 185 190 192 188 190 195 197 195 191 185 182 177 175 171 176 172 176 180 185 188 193 195 183 181 179 179 178 180 180 174 179 176 168 169 178 185 183 183 184 188 194 199 199 185 190 179 183 175 186 159 174 177 183 194 222 251 237 192
184 186 188 187 186 191 191 193 193 194 195 192 186 182 182 178 175 171 175 173 175 183 185 186 184 191 191 181 183 184 183 183 180 173 170 164 174 178 181 182 179 179 185 187 186 191 179 161 196 189 190 193 200 191 197 202 195 194 214 203 214 206
190 190 189 184 189 192 194 197 197 194 195 192 184 184 185 182 179 175 175 172 175 180 185 185 186 187 188 186 182 187 183 177 178 181 184 179 175 175 170 174 171 182 192 196 193 190 182 175 192 199 197 201 212 211 215 222 212 197 206 222 217 222
193 192 187 187 192 193 194 196 195 193 194 190 189 190 188 187 182 178 177 173 174 179 181 187 191 192 188 181 181 176 178 181 181 191 188 167 89 148 164 174 174 173 185 195 197 191 190 194 191 199 200 201 215 214 220 215 209 205 214 233 228 221
192 188 187 190 192 194 197 196 195 195 193 189 188 192 194 193 184 182 178 177 181 183 187 193 181 182 177 177 186 185 177 178 177 176 170 101 147 193 159 187 177 183 190 196 188 190 200 198 200 206 198 194 207 214 220 193 203 198 196 202 214 215
189 191 187 191 193 195 196 196 194 193 191 185 189 191 186 193 184 182 181 182 187 190 195 189 178 174 166 181 184 180 176 167 155 176 136 137 157 169 162 165 164 152 149 160 180 195 205 195 195 201 200 209 205 212 212 194 199 213 211 215 220 194
191 189 189 190 193 196 195 193 192 192 192 178 182 180 180 176 187 184 183 184 189 192 194 169 164 165 173 178 178 179 167 152 148 161 156 157 156 165 165 164 157 163 165 151 174 192 204 195 203 196 199 201 209 213 197 193 206 208 219 221 221 187
196 188 189 191 194 193 190 190 191 188 184 185 178 185 187 182 185 186 186 189 190 194 189 161 164 172 172 179 173 169 165 150 155 168 159 145 153 156 158 169 163 155 152 157 171 189 194 202 195 183 197 191 210 191 176 171 190 195 198 201 215 210